Watsonville, CA

11:57 PM PST on February 20, 2018 (GMT -0800)
Watsonville Municipal

Weather History for KWVI - January, 2013

Change the Weather History Date:

Saturday, January 5, 2013

  Actual Average Record
Temperature  
Mean Temperature 50 °F 50 °F  
Max Temperature 56 °F 61 °F 74 °F (2014)
Min Temperature 44 °F 39 °F 33 °F (2004)
Degree Days  
Heating Degree Days 15    
Month to date heating degree days 88  
Since 1 July heating degree days 1316  
Cooling Degree Days 0    
Month to date cooling degree days 0  
Year to date cooling degree days 0  
Moisture  
Dew Point 45 °F    
Average Humidity 83    
Maximum Humidity 100    
Minimum Humidity 66    
Precipitation  
Precipitation 0.33 in - 2.95 in (1982)
Month to date precipitation 0.33  
Year to date precipitation 0.33  
Since 1 July precipitation 11.27  
Sea Level Pressure  
Sea Level Pressure 30.19 in    
Wind  
Wind Speed 3 mph (SW)    
Max Wind Speed 14 mph    
Max Gust Speed 17 mph    
Visibility 7 miles    
Events Rain    
T = Trace of Precipitation, MM = Missing Value Source: NWS Daily Summary

Daily Weather History Graph

Daily Weather History Graph

Search for Another Location

Airport or City:

Trip Planner

Search our weather history database for the weather conditions in past years. The results will help you decide how hot, cold, wet, or windy it might be!

Date:

Astronomy

Jan. 05, 2013 Rise Set
Actual Time 7:20 AM PST 5:05 PM PST
Civil Twilight 6:51 AM PST 5:33 PM PST
Nautical Twilight 6:19 AM PST 6:06 PM PST
Astronomical Twilight 5:48 AM PST 6:37 PM PST
Moon 12:38 AM PST (1/5) 11:53 AM PST (1/5)
Length of Visible Light 10h 41m
Length of Day
9h 44m
Last Quarter, 43% of the Moon is Illuminated
Jan 5
Last Quarter
Jan 11
New
Jan 18
First Quarter
Jan 26
Full
Feb 3
Last Quarter

Hourly Weather History & Observations

Time (PST) Temp. Windchill Dew Point Humidity Pressure Visibility Wind Dir Wind Speed Gust Speed Precip Events Conditions
12:53 AM 45.0 °F - 39.9 °F 82% 30.25 in 10.0 mi Calm Calm - N/A   Overcast
1:53 AM 45.0 °F 41.8 °F 41.0 °F 86% 30.25 in 10.0 mi NW 5.8 mph - N/A   Overcast
2:53 AM 46.0 °F - 42.1 °F 86% 30.26 in 10.0 mi Calm Calm - N/A   Overcast
3:53 AM 45.0 °F - 42.1 °F 90% 30.27 in 10.0 mi Calm Calm - N/A   Overcast
4:53 AM 45.0 °F - 42.1 °F 90% 30.26 in 10.0 mi Calm Calm - N/A   Overcast
5:53 AM 45.0 °F - 42.1 °F 90% 30.26 in 10.0 mi Calm Calm - N/A   Overcast
6:53 AM 46.0 °F - 42.1 °F 86% 30.27 in 9.0 mi Calm Calm - N/A   Overcast
7:13 AM 46.4 °F - 42.8 °F 87% 30.27 in 6.0 mi Calm Calm - N/A   Overcast
7:21 AM 46.4 °F - 42.8 °F 87% 30.28 in 5.0 mi Calm Calm - N/A   Overcast
7:53 AM 46.0 °F - 44.1 °F 93% 30.29 in 2.0 mi Calm Calm - N/A   Overcast
8:02 AM 44.6 °F - 42.8 °F 93% 30.28 in 2.5 mi Calm Calm - N/A   Overcast
8:10 AM 44.6 °F - 42.8 °F 93% 30.28 in 3.0 mi Calm Calm - N/A   Overcast
8:17 AM 44.6 °F - 42.8 °F 93% 30.28 in 4.0 mi Calm Calm - N/A   Overcast
8:53 AM 46.0 °F - 44.1 °F 93% 30.28 in 4.0 mi Calm Calm - N/A   Overcast
9:42 AM 46.4 °F - 42.8 °F 87% 30.29 in 9.0 mi Calm Calm - N/A   Overcast
9:53 AM 48.0 °F - 43.0 °F 83% 30.29 in 9.0 mi Calm Calm - N/A   Overcast
10:53 AM 52.0 °F - 46.9 °F 83% 30.27 in 10.0 mi Calm Calm - N/A   Mostly Cloudy
11:03 AM 53.6 °F - 46.4 °F 77% 30.26 in 10.0 mi Calm Calm - N/A   Partly Cloudy
11:53 AM 55.0 °F - 46.0 °F 72% 30.20 in 10.0 mi Variable 3.5 mph - N/A   Partly Cloudy
12:49 PM 55.4 °F - 46.4 °F 72% 30.19 in 10.0 mi SSW 8.1 mph - N/A   Mostly Cloudy
12:53 PM 55.0 °F - 45.0 °F 69% 30.19 in 10.0 mi SW 8.1 mph - N/A   Mostly Cloudy
1:09 PM 55.4 °F - 44.6 °F 67% 30.19 in 10.0 mi SSW 9.2 mph - N/A   Scattered Clouds
1:53 PM 54.0 °F - 42.1 °F 64% 30.18 in 10.0 mi SW 5.8 mph - N/A   Clear
2:49 PM 53.6 °F - 42.8 °F 67% 30.17 in 10.0 mi West 3.5 mph - N/A   Overcast
2:53 PM 53.1 °F - 43.0 °F 69% 30.17 in 10.0 mi Calm Calm - N/A   Overcast
3:18 PM 53.6 °F - 44.6 °F 72% 30.16 in 10.0 mi NW 3.5 mph - 0.00 in Rain Light Rain
3:53 PM 52.0 °F - 46.0 °F 80% 30.14 in 10.0 mi WNW 3.5 mph - 0.00 in   Overcast
4:53 PM 52.0 °F - 45.0 °F 77% 30.12 in 10.0 mi Calm Calm - 0.00 in   Overcast
5:53 PM 48.9 °F - 48.0 °F 97% 30.13 in 2.5 mi Calm Calm - 0.05 in Rain Light Rain
6:01 PM 48.2 °F - 48.2 °F 100% 30.13 in 2.0 mi Calm Calm - 0.02 in Rain Rain
6:16 PM 48.2 °F - 48.2 °F 100% 30.13 in 3.0 mi Calm Calm - 0.04 in Rain Rain
6:34 PM 48.2 °F - 48.2 °F 100% 30.13 in 3.0 mi Calm Calm - 0.06 in Rain Light Rain
6:53 PM 48.9 °F - 48.9 °F 100% 30.13 in 4.0 mi Calm Calm - 0.07 in Rain Light Rain
7:01 PM 48.2 °F - 48.2 °F 100% 30.13 in 2.5 mi Calm Calm - 0.01 in Rain Light Rain
7:11 PM 48.2 °F - 48.2 °F 100% 30.13 in 3.0 mi Calm Calm - 0.03 in Rain Rain
7:22 PM 48.2 °F - 48.2 °F 100% 30.12 in 3.0 mi Calm Calm - 0.05 in Rain Rain
7:53 PM 48.9 °F - 48.9 °F 100% 30.12 in 7.0 mi Calm Calm - 0.08 in Rain Light Rain
8:47 PM 50.0 °F - 50.0 °F 100% 30.10 in 10.0 mi SSE 5.8 mph - 0.01 in Rain Light Rain
8:53 PM 50.0 °F - 50.0 °F 100% 30.11 in 10.0 mi SW 5.8 mph - 0.01 in Rain Light Rain
9:22 PM 50.0 °F - 48.2 °F 94% 30.11 in 10.0 mi SSW 9.2 mph - 0.00 in Rain Light Rain
9:41 PM 50.0 °F - 50.0 °F 100% 30.12 in 8.0 mi SSW 9.2 mph - 0.01 in Rain Light Rain
9:53 PM 50.0 °F - 50.0 °F 100% 30.12 in 7.0 mi SW 11.5 mph - 0.02 in Rain Light Rain
10:25 PM 48.2 °F - 48.2 °F 100% 30.12 in 10.0 mi SSW 6.9 mph - 0.01 in Rain Light Rain
10:53 PM 48.9 °F - 48.9 °F 100% 30.12 in 7.0 mi SSW 6.9 mph - 0.03 in Rain Rain
11:53 PM 48.9 °F - 48.0 °F 97% 30.11 in 8.0 mi SSW 9.2 mph - 0.06 in Rain Light Rain